Location: Malmö
(55.6090°N, 13.0007°E)
Time: 02:06:52
(UTC+01:00)

ISS - Pass Details

Date: 27 January 2021
Orbit: 417 x 422 km, 51.6° (Epoch: 06 March)

Event Time Altitude Azimuth Distance (km) Brightness Sun altitude
Rises 19:35:13 0° 268° (W) 2,377 1.4 -25.4°
Reaches altitude 10° 19:37:24 10° 260° (W) 1,512 0.0 -25.7°
Enters shadow 19:39:07 24° 241° (WSW) 913 -1.6 -26.0°
